| time (UTC) | temp F | wind direction | speed knots | gust knots | rain 1hr in | rain 24hr in | rain mn in | humidity % | barometer mb |
| 20260505201003 | 67 | 246 | 3.5 | 7.8 | 0.00 | 0.31 | 0.11 | 75 | 1016.1 |
| 20260505200508 | 66 | 252 | 3.5 | 7.8 | 0.00 | 0.31 | 0.11 | 74 | 1016.2 |
| 20260505200016 | 67 | 263 | 4.3 | 7.8 | 0.00 | 0.31 | 0.11 | 73 | 1016.1 |
| 20260505195503 | 67 | 268 | 4.3 | 7.8 | 0.00 | 0.31 | 0.11 | 74 | 1016.2 |
| 20260505195003 | 66 | 252 | 3.5 | 7.0 | 0.00 | 0.31 | 0.11 | 77 | 1016.2 |
| 20260505194516 | 65 | 252 | 2.6 | 7.0 | 0.00 | 0.31 | 0.11 | 76 | 1016.3 |
| 20260505194008 | 64 | 238 | 3.5 | 7.0 | 0.00 | 0.31 | 0.11 | 76 | 1016.3 |
| 20260505193504 | 65 | 261 | 4.3 | 7.0 | 0.00 | 0.31 | 0.11 | 77 | 1016.3 |
| 20260505193015 | 64 | 259 | 3.5 | 7.0 | 0.00 | 0.31 | 0.11 | 78 | 1016.3 |
| 20260505192509 | 63 | 251 | 3.5 | 7.0 | 0.00 | 0.31 | 0.11 | 78 | 1016.2 |
| 20260505192006 | 63 | 231 | 4.3 | 7.0 | 0.00 | 0.31 | 0.11 | 78 | 1016.3 |
| 20260505191521 | 63 | 236 | 3.5 | 7.8 | 0.00 | 0.31 | 0.11 | 79 | 1016.3 |
| 20260505191010 | 62 | 247 | 4.3 | 7.8 | 0.00 | 0.31 | 0.11 | 78 | 1016.3 |
| 20260505190504 | 62 | 247 | 4.3 | 7.8 | 0.00 | 0.31 | 0.11 | 79 | 1016.3 |
| 20260505190008 | 62 | 249 | 5.2 | 7.8 | 0.00 | 0.31 | 0.11 | 78 | 1016.2 |
| 20260505185507 | 62 | 261 | 6.1 | 10.4 | 0.00 | 0.31 | 0.11 | 79 | 1016.3 |
| 20260505185007 | 62 | 250 | 5.2 | 10.4 | 0.00 | 0.31 | 0.11 | 78 | 1016.2 |
| 20260505184516 | 62 | 257 | 7.0 | 10.4 | 0.00 | 0.31 | 0.11 | 78 | 1016.2 |
| 20260505184004 | 62 | 280 | 7.0 | 10.4 | 0.00 | 0.31 | 0.11 | 77 | 1016.2 |
| 20260505183507 | 63 | 268 | 7.0 | 10.4 | 0.00 | 0.31 | 0.11 | 77 | 1016.1 |
| 20260505183020 | 63 | 278 | 6.1 | 10.4 | 0.00 | 0.31 | 0.11 | 79 | 1016.1 |
| 20260505182504 | 62 | 263 | 7.0 | 9.6 | 0.00 | 0.31 | 0.11 | 81 | 1016.1 |
| 20260505182007 | 61 | 275 | 7.0 | 9.6 | 0.00 | 0.31 | 0.11 | 81 | 1016.2 |
| 20260505181522 | 60 | 288 | 6.1 | 9.6 | 0.00 | 0.31 | 0.11 | 82 | 1016.2 |
| 20260505181008 | 60 | 271 | 6.1 | 8.7 | 0.00 | 0.31 | 0.11 | 83 | 1016.3 |
| 20260505180504 | 60 | 262 | 2.6 | 7.8 | 0.00 | 0.31 | 0.11 | 83 | 1016.2 |
| 20260505180008 | 60 | 293 | 2.6 | 4.3 | 0.00 | 0.31 | 0.11 | 83 | 1016.3 |
| 20260505175508 | 59 | 299 | 2.6 | 6.1 | 0.00 | 0.31 | 0.11 | 84 | 1016.2 |
| 20260505175003 | 59 | 300 | 2.6 | 7.0 | 0.00 | 0.31 | 0.11 | 84 | 1016.0 |
| 20260505174518 | 59 | 300 | 3.5 | 7.8 | 0.00 | 0.31 | 0.11 | 84 | 1016.1 |
| 20260505174006 | 59 | 293 | 3.5 | 7.8 | 0.00 | 0.31 | 0.11 | 84 | 1016.1 |
| 20260505173510 | 59 | 296 | 5.2 | 7.8 | 0.00 | 0.31 | 0.11 | 85 | 1016.0 |
| 20260505173013 | 58 | 273 | 5.2 | 7.8 | 0.00 | 0.31 | 0.11 | 85 | 1015.9 |
| 20260505172507 | 58 | 277 | 4.3 | 7.0 | 0.00 | 0.31 | 0.11 | 86 | 1015.7 |
| 20260505172010 | 58 | 293 | 3.5 | 7.0 | 0.00 | 0.31 | 0.11 | 86 | 1015.8 |
| 20260505171521 | 58 | 291 | 4.3 | 6.1 | 0.00 | 0.31 | 0.11 | 86 | 1015.9 |
| 20260505171004 | 58 | 284 | 3.5 | 7.0 | 0.00 | 0.31 | 0.11 | 86 | 1015.8 |
| 20260505170506 | 58 | 292 | 4.3 | 7.8 | 0.00 | 0.31 | 0.11 | 87 | 1015.7 |
| 20260505170020 | 58 | 296 | 3.5 | 7.8 | 0.00 | 0.31 | 0.11 | 87 | 1015.8 |
| 20260505165504 | 58 | 286 | 4.3 | 8.7 | 0.00 | 0.31 | 0.11 | 87 | 1015.8 |
| 20260505165005 | 57 | 285 | 4.3 | 8.7 | 0.00 | 0.31 | 0.11 | 87 | 1015.9 |
| 20260505164520 | 57 | 269 | 5.2 | 7.8 | 0.00 | 0.31 | 0.11 | 87 | 1015.8 |
| 20260505164003 | 57 | 281 | 4.3 | 7.8 | 0.00 | 0.31 | 0.11 | 88 | 1015.8 |
| 20260505163506 | 57 | 279 | 4.3 | 7.8 | 0.00 | 0.31 | 0.11 | 88 | 1015.7 |
| 20260505163011 | 57 | 290 | 5.2 | 9.6 | 0.00 | 0.31 | 0.11 | 88 | 1015.8 |
| 20260505162511 | 57 | 276 | 7.0 | 9.6 | 0.00 | 0.31 | 0.11 | 88 | 1015.8 |
| 20260505162007 | 57 | 275 | 3.5 | 8.7 | 0.00 | 0.31 | 0.11 | 89 | 1015.7 |
| 20260505161533 | 57 | 267 | 7.0 | 9.6 | 0.00 | 0.31 | 0.11 | 89 | 1015.7 |
| 20260505161010 | 56 | 264 | 6.1 | 9.6 | 0.00 | 0.31 | 0.11 | 89 | 1015.7 |
| 20260505160513 | 56 | 273 | 4.3 | 9.6 | 0.00 | 0.31 | 0.11 | 89 | 1015.7 |
| 20260505153025 | 56 | 261 | 7.0 | 10.4 | 0.00 | 0.31 | 0.11 | 91 | 1015.4 |
| 20260505152506 | 55 | 259 | 7.0 | 13.9 | 0.00 | 0.31 | 0.11 | 91 | 1015.4 |
| 20260505152003 | 55 | 269 | 7.8 | 13.9 | 0.00 | 0.31 | 0.11 | 91 | 1015.3 |
| 20260505151532 | 55 | 265 | 7.0 | 12.2 | 0.00 | 0.31 | 0.11 | 91 | 1015.3 |
| 20260505151008 | 55 | 266 | 7.8 | 12.2 | 0.00 | 0.31 | 0.11 | 91 | 1015.3 |
| 20260505150508 | 55 | 246 | 7.0 | 11.3 | 0.00 | 0.31 | 0.11 | 91 | 1015.2 |
| 20260505140508 | 54 | 260 | 5.2 | 10.4 | 0.00 | 0.31 | 0.11 | 92 | 1014.9 |
| 20260505125013 | 53 | 222 | 3.5 | 7.8 | 0.00 | 0.31 | 0.11 | 93 | 1014.6 |
| 20260505124518 | 53 | 215 | 3.5 | 7.8 | 0.00 | 0.31 | 0.11 | 93 | 1014.5 |
| 20260505124008 | 53 | 223 | 2.6 | 7.0 | 0.00 | 0.31 | 0.11 | 93 | 1014.5 |
| 20260505123509 | 53 | 214 | 3.5 | 12.2 | 0.00 | 0.31 | 0.11 | 93 | 1014.5 |
| 20260505123012 | 53 | 235 | 5.2 | 12.2 | 0.00 | 0.31 | 0.11 | 93 | 1014.5 |
| 20260505122507 | 53 | 231 | 3.5 | 7.0 | 0.00 | 0.31 | 0.11 | 93 | 1014.5 |
| 20260505122011 | 53 | 216 | 4.3 | 7.0 | 0.00 | 0.31 | 0.11 | 93 | 1014.6 |
| 20260505121532 | 53 | 215 | 3.5 | 6.1 | 0.00 | 0.31 | 0.11 | 93 | 1014.7 |
| 20260505121004 | 53 | 209 | 3.5 | 7.0 | 0.00 | 0.31 | 0.11 | 93 | 1014.6 |
| 20260505120510 | 53 | 211 | 3.5 | 7.0 | 0.00 | 0.31 | 0.11 | 93 | 1014.6 |
| 20260505120024 | 53 | 229 | 4.3 | 7.8 | 0.00 | 0.31 | 0.11 | 93 | 1014.5 |
| 20260505115505 | 53 | 219 | 3.5 | 7.8 | 0.00 | 0.31 | 0.11 | 93 | 1014.5 |
| 20260505115008 | 53 | 237 | 4.3 | 7.8 | 0.00 | 0.31 | 0.11 | 93 | 1014.5 |
| 20260505114513 | 53 | 227 | 2.6 | 6.1 | 0.00 | 0.31 | 0.11 | 93 | 1014.4 |
| 20260505114008 | 52 | 229 | 2.6 | 6.1 | 0.00 | 0.31 | 0.11 | 93 | 1014.5 |
| 20260505113504 | 52 | 209 | 1.7 | 5.2 | 0.00 | 0.31 | 0.11 | 93 | 1014.5 |
| 20260505113018 | 52 | 205 | 2.6 | 5.2 | 0.00 | 0.31 | 0.11 | 93 | 1014.5 |
| 20260505112512 | 52 | 189 | 0.9 | 4.3 | 0.00 | 0.31 | 0.11 | 93 | 1014.5 |
| 20260505112009 | 52 | 188 | 1.7 | 4.3 | 0.00 | 0.31 | 0.11 | 93 | 1014.5 |
| 20260505111516 | 52 | 187 | 1.7 | 4.3 | 0.00 | 0.31 | 0.11 | 93 | 1014.5 |
| 20260505111011 | 52 | 180 | 0.9 | 4.3 | 0.00 | 0.31 | 0.11 | 93 | 1014.7 |
| 20260505110514 | 52 | 180 | 2.6 | 5.2 | 0.00 | 0.31 | 0.11 | 93 | 1014.7 |
| 20260505102007 | 52 | 203 | 0.9 | 5.2 | 0.00 | 0.31 | 0.11 | 93 | 1014.8 |
| 20260505101529 | 52 | 198 | 1.7 | 5.2 | 0.00 | 0.31 | 0.11 | 93 | 1014.8 |
| 20260505101010 | 52 | 198 | 1.7 | 4.3 | 0.00 | 0.31 | 0.11 | 93 | 1014.9 |
| 20260505100508 | 52 | 198 | 0.9 | 6.1 | 0.00 | 0.31 | 0.11 | 93 | 1014.9 |
| 20260505100024 | 52 | 198 | 1.7 | 7.0 | 0.00 | 0.31 | 0.11 | 93 | 1014.7 |
| 20260505095508 | 52 | 180 | 2.6 | 7.0 | 0.01 | 0.31 | 0.11 | 93 | 1014.6 |
| 20260505095007 | 53 | 213 | 2.6 | 6.1 | 0.01 | 0.31 | 0.11 | 92 | 1014.5 |
| 20260505094517 | 52 | 194 | 1.7 | 5.2 | 0.01 | 0.31 | 0.11 | 92 | 1014.7 |
| 20260505094010 | 52 | 204 | 1.7 | 4.3 | 0.01 | 0.31 | 0.11 | 92 | 1014.9 |
| 20260505093508 | 53 | 207 | 1.7 | 5.2 | 0.02 | 0.31 | 0.11 | 92 | 1014.9 |
| 20260505093018 | 53 | 194 | 1.7 | 5.2 | 0.02 | 0.31 | 0.11 | 92 | 1015.0 |
| 20260505092509 | 53 | 192 | 1.7 | 4.3 | 0.02 | 0.31 | 0.11 | 92 | 1015.0 |
| 20260505092008 | 53 | 191 | 1.7 | 4.3 | 0.02 | 0.31 | 0.11 | 92 | 1015.0 |
| 20260505091518 | 53 | 190 | 1.7 | 4.3 | 0.02 | 0.31 | 0.11 | 92 | 1015.1 |
| 20260505091010 | 53 | 216 | 1.7 | 6.1 | 0.02 | 0.31 | 0.11 | 92 | 1015.1 |
| 20260505090509 | 53 | 215 | 2.6 | 6.1 | 0.02 | 0.31 | 0.11 | 92 | 1015.1 |
| 20260505090037 | 53 | 210 | 2.6 | 5.2 | 0.02 | 0.31 | 0.11 | 92 | 1015.0 |
| 20260505085508 | 53 | 213 | 1.7 | 6.1 | 0.02 | 0.30 | 0.10 | 92 | 1015.2 |
| 20260505085007 | 53 | 202 | 2.6 | 6.1 | 0.02 | 0.30 | 0.10 | 92 | 1015.2 |
| 20260505084526 | 53 | 202 | 1.7 | 4.3 | 0.03 | 0.30 | 0.10 | 92 | 1015.3 |
| 20260505084011 | 53 | 198 | 1.7 | 5.2 | 0.04 | 0.30 | 0.10 | 92 | 1015.4 |
| 20260505083509 | 53 | 192 | 1.7 | 5.2 | 0.04 | 0.29 | 0.09 | 92 | 1015.5 |
| 20260505083023 | 53 | 196 | 1.7 | 6.1 | 0.04 | 0.29 | 0.09 | 92 | 1015.6 |
| 20260505082512 | 53 | 198 | 2.6 | 6.1 | 0.06 | 0.29 | 0.09 | 92 | 1015.5 |
| 20260505082013 | 53 | 221 | 1.7 | 4.3 | 0.07 | 0.29 | 0.09 | 92 | 1015.4 |
| 20260505081524 | 53 | 221 | 0.0 | 2.6 | 0.08 | 0.29 | 0.09 | 92 | 1015.4 |
| 20260505081013 | 53 | 221 | 0.9 | 3.5 | 0.08 | 0.29 | 0.09 | 92 | 1015.4 |
| 20260505080510 | 53 | 221 | 1.7 | 4.3 | 0.08 | 0.29 | 0.09 | 92 | 1015.5 |
| 20260505080036 | 53 | 221 | 1.7 | 4.3 | 0.09 | 0.29 | 0.09 | 92 | 1015.5 |
| 20260505075507 | 53 | 221 | 0.9 | 5.2 | 0.08 | 0.28 | 0.08 | 91 | 1015.6 |
| 20260505075007 | 53 | 222 | 3.5 | 8.7 | 0.08 | 0.28 | 0.08 | 91 | 1015.6 |
| 20260505074526 | 53 | 252 | 3.5 | 9.6 | 0.07 | 0.27 | 0.07 | 92 | 1015.6 |
| 20260505074008 | 53 | 265 | 5.2 | 9.6 | 0.06 | 0.26 | 0.06 | 92 | 1015.6 |
| 20260505073506 | 53 | 286 | 6.1 | 11.3 | 0.05 | 0.25 | 0.05 | 92 | 1015.8 |
| 20260505073033 | 53 | 273 | 6.1 | 11.3 | 0.05 | 0.25 | 0.05 | 91 | 1015.6 |
| 20260505072509 | 53 | 262 | 6.1 | 8.7 | 0.03 | 0.23 | 0.03 | 91 | 1015.4 |
| 20260505072010 | 53 | 239 | 2.6 | 4.3 | 0.02 | 0.22 | 0.02 | 91 | 1015.5 |
| 20260505071537 | 53 | 240 | 2.6 | 8.7 | 0.02 | 0.21 | 0.01 | 91 | 1015.7 |
| 20260505071007 | 53 | 250 | 2.6 | 8.7 | 0.02 | 0.21 | 0.01 | 91 | 1015.7 |
| 20260505070511 | 53 | 270 | 6.1 | 8.7 | 0.02 | 0.21 | 0.01 | 91 | 1015.7 |
| 20260505070026 | 53 | 244 | 1.7 | 8.7 | 0.01 | 0.20 | 0.00 | 91 | 1015.9 |
| 20260505065511 | 53 | 278 | 6.1 | 8.7 | 0.02 | 0.20 | 0.20 | 91 | 1015.9 |
| 20260505065007 | 53 | 281 | 6.1 | 8.7 | 0.03 | 0.20 | 0.20 | 91 | 1015.9 |
| 20260505064528 | 53 | 294 | 5.2 | 8.7 | 0.04 | 0.20 | 0.20 | 91 | 1015.8 |
| 20260505064010 | 52 | 273 | 4.3 | 7.0 | 0.05 | 0.20 | 0.20 | 91 | 1015.8 |
| 20260505063507 | 52 | 214 | 1.7 | 4.3 | 0.06 | 0.20 | 0.20 | 91 | 1015.8 |
| 20260505063019 | 52 | 213 | 0.9 | 4.3 | 0.06 | 0.20 | 0.20 | 91 | 1015.7 |
| 20260505062511 | 52 | 212 | 2.6 | 5.2 | 0.07 | 0.20 | 0.20 | 91 | 1015.7 |
| 20260505062009 | 52 | 213 | 0.9 | 6.1 | 0.07 | 0.20 | 0.20 | 91 | 1015.7 |
| 20260505061531 | 52 | 215 | 2.6 | 9.6 | 0.07 | 0.19 | 0.19 | 90 | 1015.5 |
| 20260505061006 | 53 | 223 | 4.3 | 9.6 | 0.07 | 0.19 | 0.19 | 90 | 1015.3 |
| 20260505060514 | 53 | 244 | 2.6 | 7.0 | 0.08 | 0.19 | 0.19 | 90 | 1015.3 |
| 20260505060034 | 53 | 218 | 2.6 | 7.8 | 0.08 | 0.19 | 0.19 | 90 | 1015.3 |
| 20260505055513 | 53 | 270 | 5.2 | 8.7 | 0.07 | 0.18 | 0.18 | 90 | 1015.5 |
| 20260505055013 | 53 | 277 | 5.2 | 8.7 | 0.07 | 0.17 | 0.17 | 90 | 1015.6 |
| 20260505054527 | 53 | 270 | 5.2 | 8.7 | 0.06 | 0.16 | 0.16 | 90 | 1015.7 |
| 20260505054011 | 53 | 265 | 4.3 | 7.8 | 0.05 | 0.15 | 0.15 | 90 | 1015.7 |
| 20260505053514 | 53 | 266 | 6.1 | 9.6 | 0.05 | 0.14 | 0.14 | 90 | 1015.8 |
| 20260505053010 | 53 | 244 | 6.1 | 10.4 | 0.06 | 0.14 | 0.14 | 90 | 1015.7 |
| 20260505052507 | 53 | 269 | 7.8 | 10.4 | 0.06 | 0.13 | 0.13 | 90 | 1015.6 |
| 20260505052007 | 53 | 271 | 7.8 | 9.6 | 0.07 | 0.13 | 0.13 | 90 | 1015.6 |
| 20260505051525 | 53 | 267 | 6.1 | 10.4 | 0.06 | 0.12 | 0.12 | 90 | 1015.5 |
| 20260505051006 | 53 | 225 | 7.8 | 10.4 | 0.06 | 0.12 | 0.12 | 89 | 1015.5 |
| 20260505050507 | 54 | 269 | 5.2 | 9.6 | 0.06 | 0.11 | 0.11 | 89 | 1015.6 |
| 20260505041515 | 54 | 286 | 8.7 | 13.9 | 0.04 | 0.06 | 0.06 | 88 | 1016.1 |
| 20260505041007 | 55 | 286 | 10.4 | 13.9 | 0.05 | 0.06 | 0.06 | 88 | 1016.1 |
| 20260505040511 | 55 | 296 | 11.3 | 13.9 | 0.04 | 0.05 | 0.05 | 88 | 1016.1 |
| 20260505040010 | 55 | 292 | 11.3 | 13.9 | 0.04 | 0.05 | 0.05 | 88 | 1016.0 |
| 20260505035511 | 55 | 288 | 9.6 | 13.9 | 0.03 | 0.04 | 0.04 | 88 | 1015.9 |
| 20260505035018 | 55 | 290 | 9.6 | 13.9 | 0.03 | 0.04 | 0.04 | 88 | 1015.9 |
| 20260505034511 | 55 | 298 | 9.6 | 13.9 | 0.02 | 0.03 | 0.03 | 88 | 1015.7 |
| 20260505034003 | 55 | 296 | 9.6 | 13.9 | 0.02 | 0.03 | 0.03 | 88 | 1015.5 |
| 20260505033511 | 55 | 284 | 9.6 | 13.9 | 0.02 | 0.03 | 0.03 | 88 | 1015.4 |
| 20260505033024 | 55 | 286 | 10.4 | 13.0 | 0.01 | 0.02 | 0.02 | 88 | 1015.3 |
| 20260505032504 | 55 | 274 | 9.6 | 13.0 | 0.01 | 0.02 | 0.02 | 88 | 1015.2 |
| 20260505032010 | 55 | 298 | 9.6 | 13.9 | 0.01 | 0.02 | 0.02 | 88 | 1015.1 |
| 20260505031519 | 55 | 271 | 10.4 | 13.9 | 0.01 | 0.02 | 0.02 | 88 | 1015.0 |
| 20260505031006 | 56 | 284 | 7.8 | 10.4 | 0.01 | 0.01 | 0.01 | 88 | 1015.0 |
| 20260505030504 | 56 | 289 | 7.8 | 13.9 | 0.01 | 0.01 | 0.01 | 88 | 1014.9 |
| 20260505030022 | 56 | 299 | 8.7 | 13.9 | 0.01 | 0.01 | 0.01 | 88 | 1015.0 |
| 20260505025510 | 56 | 298 | 8.7 | 13.0 | 0.01 | 0.01 | 0.01 | 88 | 1014.9 |
| 20260505025009 | 56 | 303 | 10.4 | 13.0 | 0.01 | 0.01 | 0.01 | 88 | 1014.9 |
| 20260505024520 | 56 | 294 | 9.6 | 13.9 | 0.01 | 0.01 | 0.01 | 88 | 1015.1 |
| 20260505024010 | 56 | 295 | 10.4 | 13.9 | 0.01 | 0.01 | 0.01 | 88 | 1015.0 |
| 20260505023507 | 56 | 294 | 9.6 | 13.9 | 0.01 | 0.01 | 0.01 | 88 | 1015.0 |
| 20260505023015 | 56 | 317 | 10.4 | 13.9 | 0.01 | 0.01 | 0.01 | 88 | 1015.1 |
| 20260505022508 | 56 | 297 | 8.7 | 12.2 | 0.01 | 0.01 | 0.01 | 88 | 1015.1 |
| 20260505022008 | 56 | 307 | 8.7 | 11.3 | 0.01 | 0.01 | 0.01 | 88 | 1015.1 |
| 20260505021516 | 56 | 311 | 7.8 | 11.3 | 0.01 | 0.01 | 0.01 | 88 | 1015.1 |
| 20260505021008 | 56 | 306 | 7.8 | 11.3 | 0.00 | 0.00 | 0.00 | 87 | 1015.1 |
| 20260505020507 | 57 | 295 | 8.7 | 11.3 | 0.00 | 0.00 | 0.00 | 87 | 1015.0 |
| 20260505020020 | 56 | 298 | 7.0 | 10.4 | 0.00 | 0.00 | 0.00 | 87 | 1015.0 |
| 20260505015505 | 57 | 286 | 8.7 | 10.4 | 0.00 | 0.00 | 0.00 | 87 | 1015.0 |
| 20260505015008 | 57 | 297 | 7.8 | 11.3 | 0.00 | 0.00 | 0.00 | 87 | 1015.2 |
| 20260505014535 | 57 | 299 | 7.0 | 11.3 | 0.00 | 0.00 | 0.00 | 86 | 1015.3 |
| 20260505014014 | 57 | 298 | 7.0 | 10.4 | 0.00 | 0.00 | 0.00 | 86 | 1015.3 |
| 20260505013508 | 57 | 290 | 7.0 | 11.3 | 0.00 | 0.00 | 0.00 | 86 | 1015.4 |
| 20260505013023 | 57 | 291 | 8.7 | 11.3 | 0.00 | 0.00 | 0.00 | 85 | 1015.4 |
| 20260505012511 | 57 | 294 | 7.8 | 12.2 | 0.00 | 0.00 | 0.00 | 85 | 1015.5 |
| 20260505012011 | 57 | 286 | 9.6 | 13.0 | 0.00 | 0.00 | 0.00 | 84 | 1015.5 |
| 20260505011520 | 57 | 288 | 8.7 | 13.9 | 0.00 | 0.00 | 0.00 | 84 | 1015.5 |
| 20260505011006 | 58 | 277 | 8.7 | 13.9 | 0.00 | 0.00 | 0.00 | 83 | 1015.5 |
| 20260505010507 | 58 | 271 | 9.6 | 14.8 | 0.00 | 0.00 | 0.00 | 82 | 1015.5 |
| 20260505010020 | 58 | 276 | 10.4 | 14.8 | 0.00 | 0.00 | 0.00 | 80 | 1015.5 |
| 20260505005508 | 58 | 275 | 10.4 | 14.8 | 0.00 | 0.00 | 0.00 | 80 | 1015.4 |
| 20260505005011 | 58 | 283 | 11.3 | 14.8 | 0.00 | 0.00 | 0.00 | 79 | 1015.3 |
| 20260505004525 | 58 | 278 | 12.2 | 14.8 | 0.00 | 0.00 | 0.00 | 78 | 1015.3 |
| 20260505004008 | 59 | 279 | 10.4 | 14.8 | 0.00 | 0.00 | 0.00 | 77 | 1015.3 |
| 20260505003507 | 59 | 279 | 10.4 | 13.0 | 0.00 | 0.00 | 0.00 | 77 | 1015.3 |
| 20260505003026 | 59 | 286 | 10.4 | 13.9 | 0.00 | 0.00 | 0.00 | 76 | 1015.4 |
| 20260505002508 | 59 | 285 | 10.4 | 13.9 | 0.00 | 0.00 | 0.00 | 75 | 1015.4 |
| 20260505002007 | 60 | 290 | 12.2 | 13.9 | 0.00 | 0.00 | 0.00 | 75 | 1015.4 |
| 20260505001528 | 60 | 302 | 9.6 | 13.0 | 0.00 | 0.00 | 0.00 | 76 | 1015.4 |
| 20260505001010 | 60 | 298 | 10.4 | 13.0 | 0.00 | 0.00 | 0.00 | 76 | 1015.4 |
| 20260505000506 | 60 | 293 | 7.8 | 13.0 | 0.00 | 0.00 | 0.00 | 75 | 1015.3 |
| 20260505000025 | 60 | 273 | 9.6 | 13.0 | 0.00 | 0.00 | 0.00 | 74 | 1015.3 |
| 20260504235511 | 60 | 278 | 9.6 | 13.0 | 0.00 | 0.00 | 0.00 | 74 | 1015.3 |
| 20260504235007 | 61 | 296 | 8.7 | 13.0 | 0.00 | 0.00 | 0.00 | 74 | 1015.3 |
| 20260504234521 | 61 | 292 | 9.6 | 13.9 | 0.00 | 0.00 | 0.00 | 74 | 1015.2 |
| 20260504234014 | 61 | 281 | 11.3 | 13.9 | 0.00 | 0.00 | 0.00 | 73 | 1015.2 |
| 20260504233507 | 61 | 292 | 10.4 | 13.9 | 0.00 | 0.00 | 0.00 | 73 | 1015.2 |
| 20260504233018 | 61 | 273 | 10.4 | 13.9 | 0.00 | 0.00 | 0.00 | 71 | 1015.1 |
| 20260504232508 | 61 | 282 | 10.4 | 13.9 | 0.00 | 0.00 | 0.00 | 70 | 1015.2 |
| 20260504232009 | 61 | 268 | 10.4 | 13.9 | 0.00 | 0.00 | 0.00 | 69 | 1015.1 |
| 20260504231524 | 61 | 288 | 10.4 | 13.9 | 0.00 | 0.00 | 0.00 | 70 | 1015.1 |
| 20260504231009 | 62 | 285 | 10.4 | 13.0 | 0.00 | 0.00 | 0.00 | 70 | 1015.1 |
| 20260504230507 | 62 | 290 | 10.4 | 13.0 | 0.00 | 0.00 | 0.00 | 70 | 1015.0 |
| 20260504230026 | 62 | 293 | 11.3 | 13.0 | 0.00 | 0.00 | 0.00 | 70 | 1015.1 |
| 20260504225509 | 62 | 285 | 9.6 | 13.0 | 0.00 | 0.00 | 0.00 | 71 | 1015.1 |
| 20260504225010 | 62 | 292 | 8.7 | 13.0 | 0.00 | 0.00 | 0.00 | 71 | 1015.1 |
| 20260504224535 | 62 | 288 | 8.7 | 10.4 | 0.00 | 0.00 | 0.00 | 71 | 1015.2 |
| 20260504224007 | 62 | 283 | 7.0 | 9.6 | 0.00 | 0.00 | 0.00 | 70 | 1015.2 |
| 20260504223512 | 63 | 279 | 7.0 | 8.7 | 0.00 | 0.00 | 0.00 | 72 | 1015.3 |
| 20260504223007 | 63 | 268 | 7.0 | 8.7 | 0.00 | 0.00 | 0.00 | 71 | 1015.3 |
| 20260504222508 | 63 | 277 | 6.1 | 8.7 | 0.00 | 0.00 | 0.00 | 71 | 1015.4 |
| 20260504222009 | 63 | 272 | 7.0 | 10.4 | 0.00 | 0.00 | 0.00 | 71 | 1015.4 |
| 20260504221505 | 63 | 267 | 7.0 | 10.4 | 0.00 | 0.00 | 0.00 | 70 | 1015.4 |
| 20260504221005 | 63 | 237 | 6.1 | 9.6 | 0.00 | 0.00 | 0.00 | 69 | 1015.4 |
| 20260504220510 | 64 | 254 | 6.1 | 9.6 | 0.00 | 0.00 | 0.00 | 70 | 1015.5 |
| 20260504220009 | 64 | 253 | 5.2 | 8.7 | 0.00 | 0.00 | 0.00 | 69 | 1015.5 |
| 20260504215507 | 64 | 261 | 4.3 | 8.7 | 0.00 | 0.00 | 0.00 | 69 | 1015.5 |
| 20260504215008 | 64 | 248 | 6.1 | 8.7 | 0.00 | 0.00 | 0.00 | 69 | 1015.5 |
| 20260504214515 | 64 | 263 | 6.1 | 9.6 | 0.00 | 0.00 | 0.00 | 69 | 1015.4 |
| 20260504214008 | 64 | 270 | 6.1 | 9.6 | 0.00 | 0.00 | 0.00 | 73 | 1015.4 |
| 20260504213506 | 64 | 267 | 7.0 | 9.6 | 0.00 | 0.00 | 0.00 | 73 | 1015.5 |
| 20260504213021 | 63 | 263 | 7.0 | 10.4 | 0.00 | 0.00 | 0.00 | 75 | 1015.4 |
| 20260504212511 | 62 | 240 | 6.1 | 10.4 | 0.00 | 0.00 | 0.00 | 75 | 1015.5 |
| 20260504212008 | 62 | 253 | 7.0 | 10.4 | 0.00 | 0.00 | 0.00 | 75 | 1015.5 |
| 20260504211516 | 63 | 249 | 7.0 | 9.6 | 0.00 | 0.00 | 0.00 | 74 | 1015.6 |
| 20260504211008 | 63 | 267 | 7.0 | 10.4 | 0.00 | 0.00 | 0.00 | 74 | 1015.5 |
| 20260504210510 | 63 | 257 | 7.0 | 10.4 | 0.00 | 0.00 | 0.00 | 74 | 1015.5 |
| 20260504210007 | 63 | 253 | 6.1 | 12.2 | 0.00 | 0.00 | 0.00 | 72 | 1015.4 |
| 20260504205507 | 63 | 248 | 6.1 | 12.2 | 0.00 | 0.00 | 0.00 | 73 | 1015.4 |
| 20260504205005 | 63 | 268 | 7.8 | 11.3 | 0.00 | 0.00 | 0.00 | 75 | 1015.5 |
| 20260504204521 | 63 | 274 | 8.7 | 10.4 | 0.00 | 0.00 | 0.00 | 72 | 1015.5 |
| 20260504204009 | 63 | 263 | 7.8 | 10.4 | 0.00 | 0.00 | 0.00 | 73 | 1015.5 |
| 20260504203506 | 63 | 252 | 6.1 | 10.4 | 0.00 | 0.00 | 0.00 | 72 | 1015.5 |
| 20260504203023 | 64 | 284 | 6.1 | 8.7 | 0.00 | 0.00 | 0.00 | 70 | 1015.4 |
| 20260504202507 | 64 | 261 | 5.2 | 7.8 | 0.00 | 0.00 | 0.00 | 70 | 1015.4 |
| 20260504202008 | 64 | 259 | 5.2 | 7.8 | 0.00 | 0.00 | 0.00 | 70 | 1015.4 |
| 20260504201521 | 63 | 265 | 6.1 | 7.8 | 0.00 | 0.00 | 0.00 | 70 | 1015.4 |